STARLINK-37606, 69845

Orbit data source: Space-Track

STARLINK-37606, 69845 is a payload satellite owned by SpaceX/Seattle (US) in LEO that was launched on Sun, 05 Jul 2026 UTC via an FALCON 9 launch vehicle from the Air Force Eastern Test Range (AFETR). Payload-class satellites include a variety of spacecraft equipped with specific instruments for various scientific and technological missions. These include communications satellites like Starlink; space stations such as the ISS; scientific satellites like the Hubble; Earth observation satellites from companies like Planet Labs, Umbra, and HawkEye 360; GPS; miniature CubeSats for education and research; and military/defense satellites.

Loading next visibility...
Identifier
69845, 2026-154AC
Orbit
LEO
Country
Flag of USUS
Related business
Manufacturer
SpaceX/Seattle
Mission
Operational spacecraft
Bus & Motor
STARLINK V2MO, Unknown motor
Mass
575 kg wet, ~530 kg dry
Launch date (UTC)
2026-07-05 (2 months ago)
Launch vehicle
FALCON 9
Launch site
Air Force Eastern Test Range (AFETR)
Object type
Payload
Rocket body
Debris
Shape & HBR
BOX + PAN, 17.7 m
Radar Cross Section
Large (>1 m²)

Expand to show TLE details & history
Last TLE update: 10 hours ago

TLE from 10 hours ago
0 STARLINK-37606
1 69845U 26154AC  26255.31612747  .00023210  00000-0  69590-3 0  9991
2 69845  53.1627   9.8189 0001130  82.4006 277.7125 15.34401299 11986
Epoch: 2026-09-12T07:35Z
TLE epoch observation values (Epoch: 2026-09-12T07:35:13.413Z)
Latitude
-0.00002°
Longitude
-95.31388°
Altitude
463.497 km
Speed
7.636 km/s
True Right ascension
00h 39m 16s
True Declination
0° 00' 00"
Sunlit
Object was in full shadow at epoch
Visualization orbit readout
Latitude
Unknown
Longitude
Unknown
Altitude
Unknown
Speed
Unknown
Apparent Right ascension
Unknown
Apparent Declination
Unknown
Sunlit
N/A
Visualization observer readout
Local Sidereal Time
09:31:49
Azimuth
Unknown
Elevation
Unknown
Doppler factor
Unknown
Orbital elements
Apogee altitude
463.729 km
Perigee altitude
462.183 km
Semi-major axis
6,841.093 km
Eccentricity
0.00011
Inclination
53.1627°
RAAN
9.8189°
Arg. of periapsis
82.4006°
True anomaly
277.69967°
Mean anomaly
277.7125°
Eccentric anomaly
277.70608°
Mean motion
3.83579 °/min
Orbital period
93.85 mins
BSTAR
0.0006959
Loading maneuver chart data...
Computing Atmospheric mass density...
Loading historical data...
Loading historical data...
Loading historical data...
Loading historical data...
Loading historical data...
Loading historical data...
Loading historical data...

Documentation

Showing up to 5 results
|